{"data":{"norad_id":62110,"intl_designator":"2024-220Y","name":"STARLINK-33551","alt_names":[],"object_type":"PAYLOAD","status":"ACTIVE","operator":null,"country":"US","launch_date":"2024-11-25","launch_site_code":"AFETR","launch_vehicle":null,"mission":null,"orbit_class":"UNKNOWN","rcs_meters":null,"size_class":null,"mass_kg":null,"dimensions":null,"purposes":["comms"],"wikipedia_slug":null,"has_3d_model":false,"image_url":null,"decayed_at":null,"tle_current":{"epoch":"2026-09-21T03:33:50.187456Z","epoch_age_seconds":126070,"freshness":"FRESH","line1":"1 62110U 24220Y   26264.14849754  .00008323  00000+0  31163-3 0  9994","line2":"2 62110  43.0006 181.7330 0001017 272.1102  87.9633 15.27581102103082","mean_motion":15.27581102,"eccentricity":0.0001017,"inclination_deg":43.0006,"raan_deg":181.733,"arg_perigee_deg":272.1102,"mean_anomaly_deg":87.9633,"bstar":0.00031163,"rev_number":10308,"period_min":94.266680709434,"perigee_km":482.34801396682,"apogee_km":483.74357854757,"semimajor_km":6861.1827962572,"source":"CELESTRAK","updated_at":"2026-09-22T09:00:49.523233Z"}}}